[[{"header":{"parameterUnit":"m.s-1","parameterCategory":2,"la1":30.2992,"la2":30.254,"lo1":-89.0895,"lo2":-89.0443,"dy":0.0025,"dx":0.0025,"nx":19,"ny":19,"refTime":"2026-05-06T03:00:00:Z","depth":"0","parameterNumber":2,"parameterNumberName":"U-component_of_CURRENTS"},"data":[0,0,0,-0.0707,-0.0707,-0.0711,-0.0711,-0.0617,-0.0616,0,0,0,0,0,0,0,0,0,0,0,-0.0703,-0.0703,-0.0707,-0.0707,-0.0711,-0.0711,-0.0617,-0.0616,0,0,0,0,0,0,0,0,0,0,0,-0.0703,-0.0703,-0.0703,-0.0707,-0.0711,-0.0711,-0.0618,-0.0638,0,0,0,0,0,0,0,0,0,0,-0.0646,-0.065,-0.0703,-0.0703,-0.0707,-0.0711,-0.0711,-0.064,-0.0637,-0.0589,0,-0.0593,0,-0.0603,-0.0608,-0.0607,0,0,0,-0.0703,-0.0653,-0.0663,-0.0703,-0.0707,-0.0711,-0.0708,-0.0639,-0.0635,-0.0584,-0.0592,-0.0589,-0.0601,-0.0607,-0.0607,-0.0524,-0.0524,0,0,-0.0702,-0.0691,-0.0666,-0.0661,-0.071,-0.0708,-0.0708,-0.0638,-0.0626,-0.0592,-0.0588,-0.06,-0.0606,-0.0605,-0.0524,-0.0524,0,0,0,-0.0705,-0.069,-0.0704,-0.0664,-0.0673,-0.0708,-0.0708,-0.0629,-0.0637,-0.0587,-0.0599,-0.0606,-0.0604,-0.0524,-0.0524,-0.0504,0,0,0,-0.0705,-0.0693,-0.0704,-0.0695,-0.0675,-0.0662,-0.0701,-0.0642,-0.0634,-0.0599,-0.0606,-0.0603,-0.0524,-0.0524,-0.0505,-0.0493,0,0,0,-0.0702,-0.0692,-0.0696,-0.0695,-0.07,-0.0665,-0.0668,-0.0641,-0.0641,-0.0607,-0.0603,-0.0524,-0.0524,-0.0505,-0.0494,-0.0456,0,0,0,-0.0686,-0.067,-0.0695,-0.0686,-0.07,-0.0694,-0.0669,-0.0649,-0.0623,-0.0605,-0.0524,-0.0524,-0.0505,-0.0495,-0.0457,-0.0434,-0.0426,0,0,-0.0655,-0.0666,-0.0664,-0.0687,-0.0678,-0.0693,-0.0665,-0.0621,-0.0606,-0.0539,-0.0538,-0.0505,-0.0494,-0.0456,-0.0434,-0.0427,0,0,0,-0.0647,-0.0637,-0.0643,-0.0646,-0.066,-0.0649,-0.0629,-0.0607,-0.0558,-0.0592,-0.051,-0.0504,-0.0481,-0.047,-0.0464,-0.0485,-0.0524,-0.0524,-0.0524,-0.0572,-0.0597,-0.0582,-0.0604,-0.0604,-0.0607,-0.0587,-0.0552,-0.0542,-0.0521,-0.0492,-0.0457,-0.0446,-0.0441,-0.0463,-0.0499,-0.0499,-0.0499,-0.0499,-0.0513,-0.0502,-0.0531,-0.0522,-0.054,-0.052,-0.0511,-0.0507,-0.0456,-0.047,-0.0448,-0.0455,-0.0433,-0.0459,-0.0498,-0.0498,-0.0498,-0.0499,-0.0499,-0.0457,-0.0452,-0.046,-0.0454,-0.0446,-0.0468,-0.044,-0.0446,-0.0429,-0.0414,-0.039,-0.0391,-0.0407,-0.04,-0.04,-0.0399,-0.0399,-0.0399,-0.0399,-0.0392,-0.04,-0.0376,-0.0383,-0.0377,-0.0384,-0.0396,-0.0376,-0.036,-0.0363,-0.0362,-0.0399,-0.0426,-0.0423,-0.0396,-0.0396,-0.0397,-0.0397,-0.0397,-0.0301,-0.0324,-0.0281,-0.0272,-0.0273,-0.0255,-0.0305,-0.0284,-0.027,-0.0245,-0.0322,-0.0327,-0.0326,-0.0331,-0.0325,-0.0275,-0.0275,-0.0275,-0.0275,-0.0241,-0.025,-0.0197,-0.0171,-0.0158,-0.0187,-0.0158,-0.0184,-0.0221,-0.0246,-0.0284,-0.0314,-0.0318,-0.0318,-0.0324,-0.032,-0.0268,-0.0268,-0.0268,-0.0172,-0.017,-0.0118,-0.0115,-0.0097,-0.0106,-0.0081,-0.0111,-0.0187,-0.0272,-0.0316,-0.0316,-0.0367,-0.0372,-0.038,-0.0386,-0.0382,0,0]},{"header":{"parameterUnit":"m.s-1","parameterCategory":2,"la1":30.2992,"la2":30.254,"lo1":-89.0895,"lo2":-89.0443,"dy":0.0025,"dx":0.0025,"nx":19,"ny":19,"refTime":"2026-05-06T03:00:00:Z","depth":"0","parameterNumber":3,"parameterNumberName":"V-component_of_CURRENTS"},"data":[0,0,0,-0.0028,-0.0026,0.0125,0.0126,0.0393,0.0395,0,0,0,0,0,0,0,0,0,0,0,-0.0077,-0.0077,-0.0028,-0.0026,0.0124,0.0126,0.0393,0.0395,0,0,0,0,0,0,0,0,0,0,0,-0.0077,-0.0077,-0.0076,-0.0026,0.0124,0.0126,0.0392,0.0269,0,0,0,0,0,0,0,0,0,0,0.0117,0.0058,-0.0077,-0.0076,-0.0025,0.0124,0.0126,0.0263,0.0277,0.0335,0,0.0335,0,0.0356,0.0412,0.0412,0,0,0,0.0012,0.0046,0.0069,-0.0076,-0.0024,0.0124,0.0067,0.027,0.0286,0.0353,0.0338,0.0348,0.036,0.0413,0.0414,0.0545,0.0544,0,0,0.0003,-0.002,0.0057,0.0078,-0.0013,0.0062,0.0071,0.028,0.0297,0.0339,0.0354,0.0364,0.0415,0.0417,0.0545,0.0545,0,0,0,-0.0046,-0.0027,-0.0009,0.0067,0.008,0.0065,0.0076,0.0288,0.0288,0.0357,0.0367,0.0416,0.0419,0.0546,0.0545,0.0483,0,0,0,-0.0049,-0.0058,-0.0014,-0.0021,0.0074,0.0178,0.008,0.0274,0.0297,0.0366,0.0416,0.0421,0.0546,0.0545,0.0486,0.0456,0,0,0,-0.0079,-0.006,-0.0057,-0.0024,0.0022,0.0174,0.0188,0.028,0.0303,0.0413,0.0422,0.0546,0.0545,0.0488,0.046,0.0437,0,0,0,-0.0087,-0.0088,-0.0057,-0.0041,0.0019,0.0105,0.0187,0.0276,0.0362,0.0417,0.0546,0.0545,0.0489,0.0463,0.044,0.0341,0.0322,0,0,-0.0096,-0.0089,-0.0079,-0.0049,-0.0004,0.0089,0.0162,0.0299,0.0367,0.0491,0.0494,0.0485,0.0461,0.0438,0.0289,0.0271,0,0,0,-0.0087,-0.0087,-0.0064,-0.003,0.0041,0.0111,0.0236,0.0293,0.0393,0.0406,0.0484,0.047,0.0458,0.0404,0.039,0.0641,0.0541,0.0541,0.0541,-0.0112,-0.0087,-0.0071,-0.0031,0.0023,0.0141,0.02,0.0295,0.0377,0.039,0.0419,0.0358,0.0298,0.0287,0.0547,0.042,0.042,0.042,0.0419,-0.0128,-0.012,-0.0092,-0.0073,-0.0007,0.0063,0.0184,0.0236,0.0314,0.0372,0.0363,0.034,0.0267,0.0551,0.0415,0.0416,0.0417,0.0417,0.0417,-0.0138,-0.0136,-0.0133,-0.0111,-0.0077,0.001,0.0056,0.0155,0.0243,0.0246,0.0209,0.0209,0.0461,0.0248,0.0248,0.0248,0.0248,0.0248,0.0247,-0.0145,-0.0147,-0.0155,-0.0147,-0.0142,-0.0109,-0.0001,0.0041,0.0089,0.013,0.013,0.0463,0.0306,0.0315,0.0243,0.0244,0.0245,0.0245,0.0245,-0.0145,-0.0154,-0.0167,-0.0175,-0.0182,-0.0185,-0.0118,-0.0085,-0.0041,-0.0052,0.0301,0.0072,0.0086,0.0097,0.0101,-0.0022,-0.0022,-0.0022,-0.0022,-0.0145,-0.0151,-0.0182,-0.0207,-0.022,-0.0216,-0.0222,-0.0194,0.0042,0.0199,0.0339,0.0396,0.0395,0.0434,0.0438,0.0453,0.0423,0.0424,0.0425,-0.0142,-0.0155,-0.0185,-0.0221,-0.0243,-0.0247,-0.027,-0.0263,0.0132,0.0479,0.0717,0.0698,0.0823,0.0802,0.0895,0.0879,0.0914,0,0]}],[{"header":{"parameterUnit":"m.s-1","parameterCategory":2,"la1":30.2992,"la2":30.254,"lo1":-89.0895,"lo2":-89.0443,"dy":0.0025,"dx":0.0025,"nx":19,"ny":19,"refTime":"2026-05-06T03:00:00:Z","depth":"2","parameterNumber":2,"parameterNumberName":"U-component_of_CURRENTS"},"data":[0,0,0,-0.1046,-0.1047,-0.1159,-0.1159,-0.1492,-0.1495,0,0,0,0,0,0,0,0,0,0,0,-0.0996,-0.0996,-0.1045,-0.1048,-0.1159,-0.1159,-0.1492,-0.1495,0,0,0,0,0,0,0,0,0,0,0,-0.0996,-0.0996,-0.0996,-0.1048,-0.1159,-0.1159,-0.1491,-0.1364,0,0,0,0,0,0,0,0,0,0,-0.1234,-0.1134,-0.0996,-0.0996,-0.1048,-0.1158,-0.116,-0.1356,-0.1372,-0.1491,0,-0.1483,0,-0.15,-0.152,-0.1522,0,0,0,-0.1066,-0.112,-0.117,-0.0996,-0.1049,-0.1158,-0.1114,-0.1363,-0.1382,-0.1513,-0.1487,-0.1499,-0.1506,-0.1523,-0.1525,-0.1836,-0.1837,0,0,-0.106,-0.1013,-0.1156,-0.118,-0.1052,-0.111,-0.1117,-0.1373,-0.1375,-0.1488,-0.1506,-0.1511,-0.1525,-0.1528,-0.1836,-0.1837,0,0,0,-0.103,-0.1008,-0.1047,-0.1167,-0.1174,-0.1113,-0.1121,-0.1362,-0.1379,-0.151,-0.1515,-0.1527,-0.1532,-0.1835,-0.1836,-0.1665,0,0,0,-0.1027,-0.099,-0.1043,-0.1016,-0.1166,-0.1239,-0.1105,-0.1361,-0.139,-0.1514,-0.1528,-0.1536,-0.1834,-0.1836,-0.1668,-0.1579,0,0,0,-0.0995,-0.0987,-0.0994,-0.1014,-0.1057,-0.1234,-0.1265,-0.1367,-0.1395,-0.1522,-0.1537,-0.1834,-0.1835,-0.1671,-0.1586,-0.1663,0,0,0,-0.0954,-0.0949,-0.0992,-0.0995,-0.1055,-0.1182,-0.1263,-0.1353,-0.1449,-0.1529,-0.1835,-0.1836,-0.1672,-0.159,-0.1665,-0.1564,-0.1547,0,0,-0.0931,-0.0945,-0.0951,-0.0993,-0.1074,-0.1169,-0.1285,-0.1419,-0.1523,-0.1766,-0.1772,-0.1667,-0.1587,-0.1663,-0.165,-0.163,0,0,0,-0.0935,-0.0924,-0.0966,-0.1005,-0.1126,-0.1224,-0.1373,-0.1455,-0.1587,-0.1585,-0.1746,-0.1702,-0.1755,-0.1702,-0.1687,-0.1843,-0.1843,-0.1843,-0.1843,-0.0835,-0.0893,-0.0919,-0.1011,-0.1085,-0.128,-0.1368,-0.1515,-0.1615,-0.1634,-0.162,-0.1637,-0.1577,-0.1565,-0.1699,-0.1698,-0.1697,-0.1697,-0.1697,-0.0808,-0.0814,-0.0864,-0.0896,-0.102,-0.1107,-0.1343,-0.141,-0.1562,-0.1587,-0.1649,-0.1593,-0.1537,-0.1685,-0.1687,-0.1689,-0.169,-0.1691,-0.1691,-0.0749,-0.076,-0.076,-0.0789,-0.0826,-0.0975,-0.1096,-0.1235,-0.1394,-0.1419,-0.1473,-0.1475,-0.1534,-0.1461,-0.1461,-0.1461,-0.1461,-0.1461,-0.1461,-0.0699,-0.071,-0.0686,-0.0691,-0.0686,-0.0746,-0.0955,-0.1098,-0.1237,-0.1301,-0.1303,-0.1561,-0.1568,-0.1529,-0.146,-0.146,-0.146,-0.146,-0.146,-0.064,-0.0616,-0.0605,-0.0594,-0.0637,-0.0744,-0.0932,-0.1134,-0.1248,-0.1302,-0.1311,-0.1315,-0.1387,-0.14,-0.1362,-0.1254,-0.1254,-0.1254,-0.1254,-0.0576,-0.0573,-0.0557,-0.0556,-0.0635,-0.0753,-0.1031,-0.1181,-0.1239,-0.1209,-0.1212,-0.1202,-0.1209,-0.1275,-0.1292,-0.1253,-0.1118,-0.1118,-0.1118,-0.0534,-0.0537,-0.0514,-0.0507,-0.0606,-0.0808,-0.1055,-0.1109,-0.1065,-0.1122,-0.128,-0.1228,-0.1217,-0.1227,-0.1339,-0.1361,-0.1304,0,0]},{"header":{"parameterUnit":"m.s-1","parameterCategory":2,"la1":30.2992,"la2":30.254,"lo1":-89.0895,"lo2":-89.0443,"dy":0.0025,"dx":0.0025,"nx":19,"ny":19,"refTime":"2026-05-06T03:00:00:Z","depth":"2","parameterNumber":3,"parameterNumberName":"V-component_of_CURRENTS"},"data":[0,0,0,-0.0557,-0.0557,-0.0506,-0.0506,-0.0289,-0.0287,0,0,0,0,0,0,0,0,0,0,0,-0.0567,-0.0567,-0.0557,-0.0556,-0.0506,-0.0506,-0.029,-0.0287,0,0,0,0,0,0,0,0,0,0,0,-0.0567,-0.0567,-0.0566,-0.0556,-0.0506,-0.0506,-0.029,-0.0364,0,0,0,0,0,0,0,0,0,0,-0.0431,-0.0463,-0.0567,-0.0566,-0.0556,-0.0507,-0.0506,-0.0369,-0.0359,-0.0271,0,-0.0265,0,-0.0272,-0.027,-0.0269,0,0,0,-0.0549,-0.0472,-0.0461,-0.0566,-0.0556,-0.0507,-0.0527,-0.0365,-0.0353,-0.0257,-0.0262,-0.0255,-0.0268,-0.0268,-0.0267,-0.0101,-0.0101,0,0,-0.0551,-0.0549,-0.047,-0.0455,-0.054,-0.0528,-0.0525,-0.036,-0.034,-0.0261,-0.0251,-0.0265,-0.0266,-0.0264,-0.0101,-0.0101,0,0,0,-0.0565,-0.055,-0.0547,-0.0462,-0.0466,-0.0527,-0.0524,-0.0348,-0.0348,-0.0249,-0.0262,-0.0265,-0.0261,-0.01,-0.0101,-0.0265,0,0,0,-0.0566,-0.0559,-0.0548,-0.0545,-0.047,-0.0427,-0.0515,-0.036,-0.0342,-0.0263,-0.0265,-0.0259,-0.01,-0.0101,-0.026,-0.028,0,0,0,-0.057,-0.0559,-0.0555,-0.0545,-0.0529,-0.0431,-0.0422,-0.0357,-0.0349,-0.0268,-0.0258,-0.01,-0.0101,-0.0256,-0.0274,-0.027,0,0,0,-0.0567,-0.0581,-0.0555,-0.0556,-0.053,-0.0542,-0.0424,-0.0402,-0.0348,-0.0263,-0.01,-0.0101,-0.0255,-0.027,-0.0267,-0.0132,-0.0135,0,0,-0.0595,-0.0584,-0.0585,-0.0561,-0.0597,-0.0549,-0.0559,-0.043,-0.0312,-0.0141,-0.0139,-0.0262,-0.0273,-0.027,-0.0148,-0.0151,0,0,0,-0.06,-0.06,-0.0607,-0.0604,-0.0609,-0.061,-0.0523,-0.0468,-0.0345,-0.028,-0.0221,-0.022,-0.0215,-0.0125,-0.0128,-0.0102,-0.0102,-0.0102,-0.0102,-0.0623,-0.0623,-0.0644,-0.065,-0.0648,-0.064,-0.062,-0.051,-0.0412,-0.0383,-0.0328,-0.0392,-0.0301,-0.0301,-0.0321,-0.0322,-0.0322,-0.0323,-0.0323,-0.0682,-0.0686,-0.067,-0.0686,-0.0682,-0.0665,-0.0628,-0.0592,-0.0506,-0.0431,-0.0418,-0.0268,-0.0313,-0.0336,-0.0333,-0.0332,-0.033,-0.0329,-0.0329,-0.0693,-0.0704,-0.069,-0.0697,-0.0684,-0.0667,-0.0683,-0.0652,-0.0576,-0.0598,-0.0412,-0.0407,-0.0467,-0.0579,-0.0579,-0.058,-0.058,-0.058,-0.058,-0.072,-0.0721,-0.0728,-0.0709,-0.0697,-0.0695,-0.0715,-0.0696,-0.0593,-0.0518,-0.0516,-0.0476,-0.0467,-0.0476,-0.0582,-0.0581,-0.0581,-0.0581,-0.0581,-0.0756,-0.071,-0.0765,-0.0761,-0.0775,-0.0811,-0.0805,-0.0691,-0.0644,-0.0539,-0.0454,-0.0456,-0.0362,-0.0357,-0.0358,-0.0427,-0.0427,-0.0427,-0.0427,-0.0745,-0.0739,-0.0806,-0.0845,-0.0887,-0.0883,-0.0863,-0.0574,-0.0339,-0.0125,-0.0138,-0.0074,-0.0087,0.0028,0.0025,0.0033,0.0066,0.0067,0.0068,-0.0765,-0.0794,-0.0837,-0.0863,-0.0929,-0.0967,-0.0869,-0.04,0.0121,0.0089,-0.0031,-0.0398,-0.0338,-0.0345,-0.0192,-0.0189,-0.0183,0,0]}],[{"header":{"parameterUnit":"m.s-1","parameterCategory":2,"la1":30.2992,"la2":30.254,"lo1":-89.0895,"lo2":-89.0443,"dy":0.0025,"dx":0.0025,"nx":19,"ny":19,"refTime":"2026-05-06T03:00:00:Z","depth":"4","parameterNumber":2,"parameterNumberName":"U-component_of_CURRENTS"},"data":[0,0,0,-0.1076,-0.108,-0.1242,-0.1242,-0.1361,-0.1362,0,0,0,0,0,0,0,0,0,0,0,-0.1027,-0.1028,-0.1076,-0.108,-0.1241,-0.1242,-0.1361,-0.1362,0,0,0,0,0,0,0,0,0,0,0,-0.1026,-0.1027,-0.1029,-0.1081,-0.1241,-0.1242,-0.1361,-0.126,0,0,0,0,0,0,0,0,0,0,-0.1114,-0.107,-0.1027,-0.1029,-0.1082,-0.1241,-0.1242,-0.1257,-0.1267,-0.1263,0,-0.1301,0,-0.133,-0.1368,-0.1368,0,0,0,-0.108,-0.1062,-0.1116,-0.1029,-0.1083,-0.1241,-0.1169,-0.1263,-0.1274,-0.1275,-0.1302,-0.1308,-0.1332,-0.1368,-0.1369,-0.1472,-0.1473,0,0,-0.1071,-0.1042,-0.1109,-0.1124,-0.114,-0.1163,-0.1174,-0.1271,-0.128,-0.1303,-0.1311,-0.1334,-0.1369,-0.1369,-0.1472,-0.1473,0,0,0,-0.1046,-0.1036,-0.1089,-0.1118,-0.1153,-0.1168,-0.118,-0.1276,-0.1298,-0.1312,-0.1336,-0.1369,-0.137,-0.1471,-0.1472,-0.1497,0,0,0,-0.104,-0.1021,-0.1085,-0.1068,-0.1152,-0.1226,-0.1182,-0.1291,-0.1303,-0.1335,-0.1369,-0.1371,-0.1471,-0.1472,-0.1495,-0.1466,0,0,0,-0.1016,-0.1018,-0.1045,-0.1066,-0.1137,-0.1225,-0.1253,-0.1295,-0.1317,-0.1368,-0.1372,-0.1471,-0.1472,-0.1494,-0.1465,-0.1469,0,0,0,-0.097,-0.1005,-0.1044,-0.1095,-0.1136,-0.1236,-0.1253,-0.133,-0.1377,-0.137,-0.1471,-0.1472,-0.1493,-0.1464,-0.1469,-0.1254,0,0,0,-0.0983,-0.1006,-0.1037,-0.1076,-0.1152,-0.1213,-0.1298,-0.1367,-0.1389,-0.1431,-0.1435,-0.1496,-0.1465,-0.1469,-0.1323,0,0,0,0,-0.102,-0.1052,-0.1083,-0.114,-0.1211,-0.1276,-0.1357,-0.1401,-0.1471,-0.1423,-0.1512,-0.149,-0.1493,-0.1367,-0.1478,-0.1477,-0.1477,-0.1477,-0.1477,-0.1007,-0.1051,-0.1097,-0.1166,-0.1228,-0.1333,-0.1393,-0.1463,-0.1496,-0.1535,-0.1525,-0.1557,-0.1429,-0.1561,-0.1561,-0.1562,-0.1562,-0.1562,-0.1562,-0.1014,-0.1032,-0.1097,-0.116,-0.1231,-0.1315,-0.143,-0.1479,-0.1551,-0.1567,-0.1569,-0.1419,-0.1565,-0.1564,-0.1564,-0.1563,-0.1563,-0.1563,-0.1563,-0.0963,-0.0976,-0.1024,-0.1093,-0.1188,-0.1306,-0.1361,-0.147,-0.1542,-0.156,-0.1426,-0.1561,-0.1542,-0.1575,-0.1575,-0.1575,-0.1575,-0.1575,-0.1575,-0.0878,-0.0922,-0.0962,-0.1045,-0.1098,-0.1189,-0.1327,-0.1355,-0.1454,-0.14,-0.156,-0.1561,-0.156,-0.1542,-0.1573,-0.1574,-0.1574,-0.1574,-0.1574,-0.0768,-0.0838,-0.0869,-0.091,-0.1012,-0.1032,-0.1187,-0.1205,-0.1217,-0.12,-0.1318,-0.1331,-0.129,-0.1296,-0.1267,-0.1218,-0.1215,-0.1212,0,-0.0713,-0.0743,-0.0781,-0.079,-0.0801,-0.0933,-0.0888,-0.0945,-0.1051,-0.1025,-0.1211,-0.1344,-0.1353,-0.1306,-0.1307,-0.1271,0,0,0,-0.063,-0.0688,-0.0619,-0.0673,-0.0681,-0.0761,-0.086,-0.0834,-0.1065,-0.0997,-0.1145,-0.1163,-0.1367,-0.157,-0.1538,-0.1537,-0.1506,0,0]},{"header":{"parameterUnit":"m.s-1","parameterCategory":2,"la1":30.2992,"la2":30.254,"lo1":-89.0895,"lo2":-89.0443,"dy":0.0025,"dx":0.0025,"nx":19,"ny":19,"refTime":"2026-05-06T03:00:00:Z","depth":"4","parameterNumber":3,"parameterNumberName":"V-component_of_CURRENTS"},"data":[0,0,0,-0.0194,-0.0193,-0.0151,-0.0151,-0.0016,-0.0014,0,0,0,0,0,0,0,0,0,0,0,-0.0207,-0.0207,-0.0194,-0.0193,-0.0151,-0.0151,-0.0016,-0.0014,0,0,0,0,0,0,0,0,0,0,0,-0.0207,-0.0207,-0.0207,-0.0193,-0.0151,-0.0151,-0.0016,-0.0065,0,0,0,0,0,0,0,0,0,0,-0.0114,-0.0146,-0.0207,-0.0207,-0.0193,-0.0152,-0.0151,-0.0068,-0.0061,-0.0016,0,-0.002,0,-0.0019,-0.0005,-0.0004,0,0,0,-0.0179,-0.0151,-0.014,-0.0207,-0.0193,-0.0152,-0.0166,-0.0065,-0.0058,-0.0007,-0.0018,-0.0014,-0.0016,-0.0004,-0.0003,0.0092,0.0091,0,0,-0.0181,-0.0193,-0.0145,-0.0136,-0.0194,-0.0168,-0.0165,-0.0061,-0.0057,-0.0018,-0.0011,-0.0014,-0.0003,-0.0002,0.0092,0.0092,0,0,0,-0.0197,-0.0195,-0.0187,-0.0141,-0.0143,-0.0167,-0.0164,-0.0061,-0.006,-0.001,-0.0013,-0.0002,-0.0,0.0092,0.0092,-0.0026,0,0,0,-0.0198,-0.0205,-0.0189,-0.0194,-0.0146,-0.0114,-0.0166,-0.0067,-0.0055,-0.0013,-0.0002,0.0001,0.0092,0.0092,-0.0023,-0.0095,0,0,0,-0.0207,-0.0206,-0.0205,-0.0195,-0.0184,-0.0116,-0.0108,-0.0064,-0.0057,-0.0004,0.0002,0.0092,0.0092,-0.002,-0.0088,-0.0042,0,0,0,-0.0213,-0.0236,-0.0206,-0.0239,-0.0185,-0.0191,-0.0108,-0.0094,-0.006,-0.0001,0.0092,0.0092,-0.0019,-0.0084,-0.004,-0.0017,0,0,0,-0.025,-0.0241,-0.0265,-0.0238,-0.0274,-0.0195,-0.021,-0.0125,-0.0038,0.0066,0.0068,-0.0024,-0.0088,-0.0042,-0.0021,0,0,0,0,-0.0283,-0.03,-0.0307,-0.0321,-0.0305,-0.0295,-0.0209,-0.0151,-0.0062,-0.0019,0.0007,-0.0029,0.0004,0.0027,0.0091,0.0091,0.0091,0.0091,0.0091,-0.0325,-0.034,-0.0384,-0.0397,-0.0396,-0.0348,-0.0318,-0.0213,-0.0122,-0.0092,-0.0101,-0.012,-0.0102,-0.006,-0.0061,-0.0061,-0.0062,-0.0062,-0.0062,-0.0388,-0.0419,-0.0439,-0.0488,-0.0481,-0.0476,-0.0392,-0.0331,-0.0228,-0.0169,-0.0129,-0.0073,-0.0073,-0.0071,-0.007,-0.0068,-0.0067,-0.0067,-0.0066,-0.0408,-0.0428,-0.0467,-0.0531,-0.0574,-0.0553,-0.0536,-0.0471,-0.033,-0.0322,-0.0195,-0.0167,-0.018,-0.0262,-0.0262,-0.0262,-0.0262,-0.0262,-0.0262,-0.0405,-0.0448,-0.0508,-0.0575,-0.062,-0.065,-0.0622,-0.0549,-0.0434,-0.0325,-0.0328,-0.0185,-0.0179,-0.0187,-0.0264,-0.0264,-0.0264,-0.0264,-0.0263,-0.042,-0.0442,-0.0527,-0.0584,-0.0686,-0.0688,-0.0693,-0.0547,-0.0455,-0.0334,-0.0282,-0.028,-0.0218,-0.021,-0.0217,-0.0306,-0.0306,-0.0306,0,-0.0423,-0.044,-0.0546,-0.0626,-0.0679,-0.0712,-0.0612,-0.0531,-0.0384,-0.0373,-0.0402,-0.0349,-0.0345,-0.0279,-0.0271,-0.0283,0,0,0,-0.0429,-0.0465,-0.0518,-0.0606,-0.067,-0.0606,-0.0578,-0.0512,-0.0437,-0.0342,-0.0306,-0.0306,-0.0318,-0.0271,-0.017,-0.0162,-0.0169,0,0]}]]